Location: Tucson
(32.2217°N, 110.9265°W)
Time: 13:46:11
(UTC-07:00)

A-11 Canister half - Pass Details

Date: 28 October 2021
Orbit: 1516 x 1684 km, 47.2° (Epoch: 04 December)

Event Time Altitude Azimuth Distance (km) Brightness Sun altitude
Rises 20:10:51 0° 290° (WNW) 4,918 12.6 -33.1°
Reaches altitude 10° 20:14:34 10° 300° (WNW) 3,915 11.8 -33.9°
Maximum altitude 20:23:21 33° 2° (N) 2,486 10.0 -35.7°
Enters shadow 20:24:41 32° 16° (NNE) 2,521 9.9 -36.0°
